Погода в Качкаровке

Украина / Херсонская область     47°05′49″N   33°44′35″E
темп.,
°C
ветер,
м/с
пор.,
м/с
влажн.,
%
обл.,
%
осадки,
мм/ч
давл.,
гПа
погр.,
м
16 сентября, чт
чт1600:00+19св5637100 0.0 1017301
03:00+17ссв564589 0.0 1017290
06:00+16ссв455112 0.0 1018267
09:00+18ссв444963 0.0 1018467
12:00+20ссв5540100 0.0 10181066
15:00+21св343219 0.0 10171098
18:00+22всв33315 0.0 1017590
21:00+20в23340 0.0 1018243
17 сентября, пт
пт1700:00+19в12363 0.0 1018137
03:00+19в11376 0.0 1017143
06:00+17ююв224229 0.0 1017143
09:00+19ююв223947 0.0 1017264
12:00+22ю233123 0.0 1016737
15:00+23ю122822 0.0 1014634
18:00+24ююз2336100 0.0 101372
21:00+20ююз684285 0.0 1014368
18 сентября, сб
сб1800:00+18ю696115 0.0 1013316
03:00+18ю5758100 0.0 1013241
06:00+18ю4558100 0.0 1012235
09:00+20ю6858100 0.0 1012478
12:00+21ююз4653100 0.1 1012802
15:00+21юз2453100 0.3 1012488
18:00+20ююз9961100 0.0 1012571
21:00+19ююз61061100 0.0 1012733
19 сентября, вс
вс1900:00+18ююв5775100 0.1 1012365
03:00+17ююз4679100 0.6 1012457
06:00+17ю468393 2.1 1012340
09:00+18ююз247198 2.7 1012382
12:00+20зюз236763 0.4 1011494
15:00+23юз355962 1.4 1010908
18:00+23сз5557100 0.0 1009696
21:00+22зюз2355100 0.0 1010172
20 сентября, пн
пн2000:00+20юз69645 0.0 1010332
03:00+18зюз69785 0.0 1009302
06:00+17сз577863 0.0 1009282
09:00+16сз667322 0.0 1011510
12:00+18зсз675892 0.0 1011903
15:00+15зсз7868100 0.0 1012745
18:00+15зсз6759100 0.1 1011797
21:00+14сз5559100 0.4 1012963